{"data":{"norad_id":61870,"intl_designator":"2024-203B","name":"2024-203B","alt_names":[],"object_type":"PAYLOAD","status":"ACTIVE","operator":null,"country":"PRC","launch_date":"2024-11-09","launch_site_code":"JSC","launch_vehicle":null,"mission":null,"orbit_class":"UNKNOWN","rcs_meters":null,"size_class":null,"mass_kg":null,"dimensions":null,"purposes":[],"wikipedia_slug":null,"has_3d_model":false,"image_url":null,"decayed_at":null,"tle_current":{"epoch":"2026-09-22T23:04:57.311616Z","epoch_age_seconds":89622,"freshness":"FRESH","line1":"1 61870U 24203B   26265.96177444  .00010155  00000+0  32487-3 0  9994","line2":"2 61870  97.4091 336.2892 0009543 345.3624  14.7340 15.32571295103930","mean_motion":15.32571295,"eccentricity":0.0009543,"inclination_deg":97.4091,"raan_deg":336.2892,"arg_perigee_deg":345.3624,"mean_anomaly_deg":14.734,"bstar":0.00032487,"rev_number":10393,"period_min":93.959739732695,"perigee_km":461.61053484878,"apogee_km":474.6773466523,"semimajor_km":6846.2809407505,"source":"CELESTRAK","updated_at":"2026-09-23T09:00:21.084829Z"}}}